Location: G�kdere
(37.0328°N, 30.9000°E)
Time: 05:26:18
(UTC+00:00)

Cosmos 2360 Rocket - Pass Details

Date: 03 March 2021
Orbit: 833 x 846 km, 71.0° (Epoch: 20 April)

Event Time Altitude Azimuth Distance (km) Brightness Sun altitude
Rises 16:52:11 0° 200° (SSW) 3,369 5.6 -12.7°
Reaches altitude 10° 16:54:36 10° 200° (SSW) 2,441 4.8 -13.2°
Maximum altitude 17:00:13 90° 81° (E) 844 2.2 -14.3°
Drops below altitude 10° 17:05:54 10° 22° (NNE) 2,465 4.4 -15.4°
Sets 17:08:21 0° 22° (NNE) 3,405 5.2 -15.9°
